Altoona, PA

6:07 AM EST on January 18, 2018 (GMT -0500)
Altoona-Blair County

Weather History for KAOO - November, 2013

Change the Weather History Date:

Saturday, November 9, 2013

  Actual Average Record
Temperature  
Mean Temperature 39 °F 44 °F  
Max Temperature 52 °F 53 °F 74 °F (1975)
Min Temperature 26 °F 35 °F 18 °F (1991)
Degree Days  
Heating Degree Days 26 21  
Month to date heating degree days 186 177  
Since 1 July heating degree days 693 792  
Cooling Degree Days 0 0  
Month to date cooling degree days 0 0  
Year to date cooling degree days 695 531  
Moisture  
Dew Point 25 °F    
Average Humidity 58    
Maximum Humidity 85    
Minimum Humidity 30    
Precipitation  
Precipitation 0.00 in 0.10 in 0.54 in (2000)
Month to date precipitation 0.39 0.94  
Year to date precipitation 25.37 30.93  
Sea Level Pressure  
Sea Level Pressure 30.16 in    
Wind  
Wind Speed 9 mph (SW)    
Max Wind Speed 23 mph    
Max Gust Speed 31 mph    
Visibility 10 miles    
Events      
T = Trace of Precipitation, MM = Missing Value Source: NWS Daily Summary

Daily Weather History Graph

Daily Weather History Graph

Search for Another Location

Airport or City:

Trip Planner

Search our weather history database for the weather conditions in past years. The results will help you decide how hot, cold, wet, or windy it might be!

Date:

Astronomy

Nov. 09, 2013 Rise Set
Actual Time 6:52 AM EST 5:01 PM EST
Civil Twilight 6:23 AM EST 5:30 PM EST
Nautical Twilight 5:51 AM EST 6:02 PM EST
Astronomical Twilight 5:19 AM EST 6:34 PM EST
Moon 12:27 PM EST (11/9) 11:29 PM EST (11/9)
Length of Visible Light 11h 06m
Length of Day
10h 08m
Waxing Crescent, 44% of the Moon is Illuminated
Nov 9
Waxing Crescent
Nov 10
First Quarter
Nov 17
Full
Nov 25
Last Quarter
Dec 2
New

Hourly Weather History & Observations

Time (EST) Temp. Windchill Dew Point Humidity Pressure Visibility Wind Dir Wind Speed Gust Speed Precip Events Conditions
12:53 AM 28.0 °F 20.0 °F 21.9 °F 78% 30.32 in 10.0 mi SSW 8.1 mph - N/A   Clear
1:53 AM 28.9 °F - 23.0 °F 78% 30.30 in 10.0 mi Calm Calm - N/A   Clear
2:53 AM 27.0 °F 19.5 °F 21.9 °F 81% 30.31 in 10.0 mi SSW 6.9 mph - N/A   Clear
3:53 AM 27.0 °F 19.5 °F 21.9 °F 81% 30.32 in 10.0 mi SW 6.9 mph - N/A   Clear
4:53 AM 28.0 °F - 23.0 °F 81% 30.31 in 10.0 mi Calm Calm - N/A   Clear
5:53 AM 30.0 °F 25.2 °F 24.1 °F 79% 30.30 in 10.0 mi WSW 4.6 mph - N/A   Clear
6:53 AM 28.9 °F - 25.0 °F 85% 30.30 in 9.0 mi Calm Calm - N/A   Clear
7:53 AM 30.9 °F - 26.1 °F 82% 30.31 in 9.0 mi Calm Calm - N/A   Clear
8:53 AM 34.0 °F 28.8 °F 27.0 °F 75% 30.30 in 10.0 mi WSW 5.8 mph - N/A   Clear
9:53 AM 39.9 °F 35.1 °F 28.9 °F 65% 30.26 in 10.0 mi South 6.9 mph - N/A   Clear
10:53 AM 43.0 °F 36.8 °F 28.0 °F 56% 30.24 in 10.0 mi SW 11.5 mph - N/A   Clear
11:53 AM 46.9 °F - 28.9 °F 50% 30.18 in 10.0 mi SSW 13.8 mph - N/A   Clear
12:53 PM 48.9 °F - 28.0 °F 44% 30.12 in 10.0 mi South 13.8 mph - N/A   Partly Cloudy
1:53 PM 48.9 °F - 27.0 °F 43% 30.09 in 10.0 mi SSW 12.7 mph - N/A   Scattered Clouds
2:53 PM 51.1 °F - 26.1 °F 38% 30.06 in 10.0 mi SSW 12.7 mph - N/A   Scattered Clouds
3:53 PM 50.0 °F - 26.1 °F 39% 30.05 in 10.0 mi SSW 15.0 mph 21.9 mph N/A   Clear
4:53 PM 50.0 °F - 26.1 °F 39% 30.02 in 10.0 mi South 10.4 mph - N/A   Clear
5:53 PM 50.0 °F - 26.1 °F 39% 30.03 in 10.0 mi SSW 13.8 mph - N/A   Clear
6:53 PM 45.0 °F 39.3 °F 27.0 °F 49% 30.03 in 10.0 mi SSW 11.5 mph - N/A   Clear
7:53 PM 42.1 °F 36.6 °F 26.1 °F 53% 30.03 in 10.0 mi SW 9.2 mph - N/A   Clear
8:53 PM 41.0 °F 35.2 °F 25.0 °F 53% 30.02 in 10.0 mi SSW 9.2 mph - N/A   Clear
9:53 PM 46.0 °F 40.6 °F 23.0 °F 40% 30.01 in 10.0 mi SW 11.5 mph - N/A   Partly Cloudy
10:53 PM 51.1 °F - 21.9 °F 32% 29.98 in 10.0 mi West 15.0 mph - N/A   Clear
11:53 PM 52.0 °F - 26.1 °F 37% 29.96 in 10.0 mi West 18.4 mph 28.8 mph N/A   Clear